Weather History for KMCB - October, 2011

Change the Weather History Date:

Sunday, October 16, 2011

  Actual Average Record
Temperature  
Mean Temperature 68 °F -  
Max Temperature 86 °F 78 °F 90 °F (1972)
Min Temperature 51 °F 55 °F 38 °F (1977)
Cooling Degree Days 4    
Growing Degree Days 18 (Base 50)    
Moisture  
Dew Point 55 °F    
Average Humidity 68    
Maximum Humidity 96    
Minimum Humidity 28    
Precipitation  
Precipitation 0.00 in - - ()
Sea Level Pressure  
Sea Level Pressure 30.07 in    
Wind  
Wind Speed 1 mph (South)    
Max Wind Speed 7 mph    
Max Gust Speed -    
Visibility 10 miles    
Events      
Averages and records for this station are not official NWS values.
T = Trace of Precipitation, MM = Missing Value Source: NWS Daily Summary

Daily Weather History Graph

Daily Weather History Graph

Search for Another Location

Airport or City:

Trip Planner

Search our weather history database for the weather conditions in past years. The results will help you decide how hot, cold, wet, or windy it might be!

Date:

Astronomy

Oct. 16, 2011 Rise Set
Actual Time 7:05 AM CDT 6:29 PM CDT
Civil Twilight 6:40 AM CDT 6:53 PM CDT
Nautical Twilight 6:12 AM CDT 7:21 PM CDT
Astronomical Twilight 5:44 AM CDT 7:49 PM CDT
Moon 9:31 PM CDT (10/16) 11:06 AM CDT (10/16)
Length of Visible Light 12h 12m
Length of Day
11h 24m
Waning Gibbous, 82% of the Moon is Illuminated
Oct 16
Waning Gibbous
Oct 19
Last Quarter
Oct 26
New
Nov 2
First Quarter
Nov 10
Full

Hourly Weather History & Observations

Time (CDT) Temp. Heat Index Dew Point Humidity Pressure Visibility Wind Dir Wind Speed Gust Speed Precip Events Conditions
12:53 AM 57.9 °F - 55.0 °F 90% 30.11 in 9.0 mi Calm Calm - N/A   Clear
1:53 AM 57.0 °F - 55.0 °F 93% 30.10 in 10.0 mi Calm Calm - N/A   Clear
2:53 AM 55.0 °F - 53.1 °F 93% 30.09 in 7.0 mi Calm Calm - N/A   Clear
3:53 AM 54.0 °F - 52.0 °F 93% 30.10 in 10.0 mi Calm Calm - N/A   Clear
4:53 AM 53.1 °F - 51.1 °F 93% 30.11 in 10.0 mi Calm Calm - N/A   Clear
5:53 AM 51.1 °F - 50.0 °F 96% 30.11 in 8.0 mi Calm Calm - N/A   Clear
6:53 AM 52.0 °F - 48.9 °F 89% 30.12 in 10.0 mi Calm Calm - N/A   Clear
7:53 AM 55.0 °F - 54.0 °F 96% 30.12 in 10.0 mi Calm Calm - N/A   Clear
8:53 AM 66.0 °F - 57.9 °F 75% 30.14 in 10.0 mi Calm Calm - N/A   Clear
9:53 AM 73.0 °F - 61.0 °F 66% 30.14 in 10.0 mi Calm Calm - N/A   Clear
10:53 AM 78.1 °F - 61.0 °F 56% 30.12 in 10.0 mi Calm Calm - N/A   Clear
11:53 AM 82.0 °F 81.4 °F 55.0 °F 39% 30.11 in 10.0 mi South 6.9 mph - N/A   Clear
12:53 PM 84.0 °F 82.5 °F 53.1 °F 34% 30.09 in 10.0 mi SSE 5.8 mph - N/A   Clear
1:53 PM 84.9 °F - 52.0 °F 32% 30.05 in 10.0 mi SSW 4.6 mph - N/A   Clear
2:53 PM 86.0 °F - 51.1 °F 30% 30.03 in 10.0 mi South 5.8 mph - N/A   Clear
3:53 PM 86.0 °F - 48.9 °F 28% 30.02 in 10.0 mi South 6.9 mph - N/A   Clear
4:53 PM 84.9 °F 83.3 °F 54.0 °F 34% 30.02 in 10.0 mi SSW 5.8 mph - N/A   Clear
5:53 PM 82.0 °F 81.7 °F 57.0 °F 42% 30.01 in 10.0 mi South 4.6 mph - N/A   Clear
6:53 PM 71.1 °F - 61.0 °F 70% 30.02 in 10.0 mi Calm Calm - N/A   Clear
7:53 PM 69.1 °F - 57.9 °F 68% 30.03 in 10.0 mi Calm Calm - N/A   Clear
8:53 PM 64.9 °F - 55.9 °F 73% 30.04 in 10.0 mi Calm Calm - N/A   Clear
9:53 PM 62.1 °F - 55.9 °F 80% 30.04 in 10.0 mi Calm Calm - N/A   Clear
10:53 PM 61.0 °F - 55.9 °F 83% 30.04 in 10.0 mi Calm Calm - N/A   Clear
11:53 PM 59.0 °F - 54.0 °F 83% 30.02 in 10.0 mi Calm Calm - N/A   Clear